This is the latest recevied weather packets stored in our database for station/object KY4EF. If no packets are shown the sender has not sent any weather packets the latest 10 day(s).
| Time | Temp. | Humidity | Pressure | Rain* | Wind** | Luminosity | Snow |
|---|---|---|---|---|---|---|---|
| 1777509013 | 18.89° C | 88% | 1010.4 hPa | 0 mm | - | 0 W/m² | - |
| 1777508710 | 18.89° C | 88% | 1010.6 hPa | 0 mm | - | 1 W/m² | - |
| 1777508407 | 18.89° C | 88% | 1010.7 hPa | 0 mm | - | 1 W/m² | - |
| 1777508104 | 18.89° C | 87% | 1010.7 hPa | 0 mm | - | 2 W/m² | - |
| 1777507800 | 18.89° C | 88% | 1010.3 hPa | 0 mm | - | 4 W/m² | - |
| 1777507497 | 18.33° C | 90% | 1010.2 hPa | 0 mm | - | 6 W/m² | - |
| 1777507194 | 18.33° C | 95% | 1010.1 hPa | 0 mm | - | 9 W/m² | - |
| 1777506892 | 18.33° C | 98% | 1010.4 hPa | 0 mm | - | 7 W/m² | - |
| 1777506589 | 18.33° C | 98% | 1010 hPa | 0 mm | - | 12 W/m² | - |
| 1777506285 | 18.89° C | 97% | 1009.7 hPa | 0 mm | - | 19 W/m² | - |
| 1777505981 | 18.89° C | 97% | 1009.7 hPa | 0 mm | - | 29 W/m² | - |
| 1777505676 | 18.33° C | 96% | 1009.8 hPa | 0 mm | - | 37 W/m² | - |
| 1777505374 | 18.89° C | 94% | 1009.8 hPa | 0 mm | - | 37 W/m² | - |
| 1777505070 | 20° C | 90% | 1009.8 hPa | 0 mm | - | 36 W/m² | - |
| 1777504768 | 20° C | 88% | 1010 hPa | 0 mm | - | 29 W/m² | - |
| 1777504465 | 20° C | 88% | 1010 hPa | 0 mm | - | 42 W/m² | - |
| 1777504160 | 20° C | 88% | 1010 hPa | 0 mm | - | 53 W/m² | - |
| 1777503856 | 20° C | 91% | 1010.1 hPa | 0 mm | - | 70 W/m² | - |
| 1777503552 | 20° C | 87% | 1010.1 hPa | 0 mm | - | 53 W/m² | - |
| 1777503249 | 20° C | 84% | 1010.2 hPa | 0 mm | - | 53 W/m² | - |
| 1777502946 | 20° C | 88% | 1010.1 hPa | 0 mm | - | 48 W/m² | - |
| 1777502643 | 20° C | 91% | 1010 hPa | 0 mm | - | 91 W/m² | - |
| 1777502340 | 19.44° C | 91% | 1010.1 hPa | 0 mm | - | 93 W/m² | - |
| 1777502036 | 20° C | 89% | 1009.9 hPa | 0 mm | - | 77 W/m² | - |
| 1777501733 | 20° C | 86% | 1009.8 hPa | 4.83 mm | - | 70 W/m² | - |
* Rain latest hour (hover to see other rain measurements)
** Current wind speed in m/s (hover to see current wind gust speed)